Location: Allos
(44.2333°N, 6.6333°E)
Time: 19:41:44
(UTC+00:00)

Cosmos 2228 Rocket - Pass Details

Date: 01 May 2021
Orbit: 617 x 652 km, 82.5° (Epoch: 05 May)

Event Time Altitude Azimuth Distance (km) Brightness Sun altitude
Exits shadow 22:58:56 39° 349° (N) 933 4.3 -30.0°
Drops below altitude 10° 23:01:50 10° 3° (N) 2,000 6.5 -30.0°
Sets 23:04:06 0° 6° (N) 2,915 7.6 -30.1°
